Location: Bamazo
(6.7448°N, 10.8189°W)
Time: 01:11:51
(UTC+00:00)

ARGOS - Pass Details

Date: 18 September 2020
Orbit: 821 x 834 km, 98.4° (Epoch: 21 October)

Event Time Altitude Azimuth Distance (km) Brightness Sun altitude
Exits shadow 20:53:39 36° 320° (NW) 1,266 4.3 -33.6°
Drops below altitude 10° 20:56:53 10° 337° (NNW) 2,409 5.8 -34.4°
Sets 20:59:16 0° 341° (NNW) 3,341 6.6 -35.0°
